JOKER64 LFMN-ZZZZ

Flight info

Callsign JOKER64
Flight time N/A
Altitude 6000
Route /
Aircraft EUFI/M-SDGHITUY/LB1

Departure

Time 2026-05-06 19:21
Airport Nice-Côte d'Azur Airport (LFMN)

Arrival

Time N/A
Airport ZZZZ
Time Latitude Longitude Altitude Speed Heading
2026-05-06 18:41 43.67141 7.22683 19 ft 0 kts 135°
2026-05-06 19:15 43.67126 7.22703 20 ft 10 kts 135°
2026-05-06 19:15 43.67073 7.22684 20 ft 8 kts 231°
2026-05-06 19:15 43.67037 7.22644 19 ft 5 kts 193°
2026-05-06 19:15 43.67003 7.22680 19 ft 7 kts 133°
2026-05-06 19:16 43.66965 7.22731 19 ft 11 kts 136°
2026-05-06 19:16 43.66872 7.22712 21 ft 15 kts 226°
2026-05-06 19:16 43.66813 7.22632 19 ft 7 kts 221°
2026-05-06 19:16 43.66773 7.22595 18 ft 11 kts 213°
2026-05-06 19:17 43.66682 7.22585 20 ft 14 kts 151°
2026-05-06 19:17 43.66621 7.22664 19 ft 7 kts 135°
2026-05-06 19:17 43.66595 7.22700 19 ft 4 kts 135°
2026-05-06 19:17 43.66579 7.22722 19 ft 4 kts 135°
2026-05-06 19:18 43.66531 7.22771 20 ft 11 kts 183°
2026-05-06 19:18 43.66490 7.22728 20 ft 9 kts 227°
2026-05-06 19:18 43.66310 7.22480 22 ft 99 kts 224°
2026-05-06 19:18 43.65530 7.21420 141 ft 185 kts 220°
2026-05-06 19:19 43.64332 7.21010 350 ft 201 kts 161°
2026-05-06 19:19 43.63310 7.22404 475 ft 230 kts 98°
2026-05-06 19:19 43.64215 7.24205 579 ft 259 kts 27°
2026-05-06 19:19 43.65643 7.25249 507 ft 207 kts 32°
2026-05-06 19:20 43.66876 7.26236 334 ft 209 kts 359°
2026-05-06 19:20 43.67852 7.25161 389 ft 200 kts 270°
2026-05-06 19:20 43.67349 7.23493 229 ft 181 kts 231°
2026-05-06 19:20 43.66446 7.22136 51 ft 199 kts 225°
2026-05-06 19:21 43.65373 7.21005 161 ft 208 kts 168°
2026-05-06 19:21 43.65084 7.22732 464 ft 226 kts 61°
2026-05-06 19:21 43.66034 7.24424 675 ft 228 kts 46°
2026-05-06 19:21 43.67244 7.25879 510 ft 235 kts 13°
2026-05-06 19:22 43.68257 7.24938 241 ft 207 kts 259°
2026-05-06 19:22 43.67484 7.23433 197 ft 183 kts 219°
2026-05-06 19:22 43.66547 7.22298 35 ft 175 kts 225°
2026-05-06 19:22 43.65462 7.21509 537 ft 233 kts 160°
2026-05-06 19:23 43.65150 7.23428 649 ft 244 kts 55°
2026-05-06 19:23 43.66099 7.25227 1047 ft 232 kts 54°
2026-05-06 19:23 43.67393 7.26185 401 ft 227 kts 330°
2026-05-06 19:23 43.67906 7.24489 299 ft 205 kts 232°
2026-05-06 19:24 43.67044 7.22987 84 ft 185 kts 228°
2026-05-06 19:24 43.66226 7.21838 25 ft 162 kts 225°
2026-05-06 19:24 43.64992 7.21844 833 ft 264 kts 118°
2026-05-06 19:24 43.65294 7.24271 1205 ft 281 kts 50°
2026-05-06 19:25 43.66641 7.26182 1293 ft 246 kts 19°
2026-05-06 19:25 43.67843 7.25459 526 ft 185 kts 278°
2026-05-06 19:25 43.67413 7.23914 165 ft 190 kts 223°
2026-05-06 19:25 43.66452 7.22714 25 ft 173 kts 225°
2026-05-06 19:26 43.65428 7.22052 331 ft 185 kts 135°
2026-05-06 19:26 43.65479 7.23713 652 ft 222 kts 49°
2026-05-06 19:26 43.66621 7.25385 1045 ft 245 kts 31°
2026-05-06 19:26 43.67876 7.25152 181 ft 176 kts 246°
2026-05-06 19:27 43.67396 7.23607 234 ft 179 kts 237°
2026-05-06 19:27 43.66604 7.22350 40 ft 176 kts 225°
2026-05-06 19:27 43.65725 7.21169 157 ft 182 kts 203°
2026-05-06 19:27 43.65065 7.22300 1203 ft 219 kts 71°
2026-05-06 19:28 43.65823 7.24143 1185 ft 228 kts 55°
2026-05-06 19:28 43.66807 7.25921 1003 ft 236 kts 37°
2026-05-06 19:28 43.68070 7.25485 244 ft 221 kts 269°
2026-05-06 19:28 43.67489 7.23627 398 ft 210 kts 233°
2026-05-06 19:29 43.66572 7.22279 27 ft 175 kts 222°
2026-05-06 19:29 43.65853 7.21324 19 ft 80 kts 224°
2026-05-06 19:29 43.65410 7.20720 57 ft 156 kts 216°
2026-05-06 19:29 43.64677 7.21853 1130 ft 264 kts 81°
2026-05-06 19:30 43.65551 7.23936 1873 ft 242 kts 52°
2026-05-06 19:30 43.66517 7.25585 1381 ft 203 kts 43°
2026-05-06 19:30 43.67595 7.25152 541 ft 214 kts 271°
2026-05-06 19:30 43.67309 7.23335 134 ft 188 kts 230°
2026-05-06 19:31 43.66429 7.22113 23 ft 159 kts 225°
2026-05-06 19:31 43.65955 7.21467 19 ft 36 kts 211°
2026-05-06 19:31 43.65934 7.21485 20 ft 15 kts 47°
2026-05-06 19:32 43.66170 7.21772 20 ft 74 kts 41°
2026-05-06 19:32 43.66499 7.22222 20 ft 60 kts 43°
2026-05-06 19:32 43.66688 7.22515 21 ft 26 kts 84°
2026-05-06 19:32 43.66643 7.22631 19 ft 11 kts 137°
2026-05-06 19:33 43.66624 7.22658 19 ft 0 kts 134°
2026-05-06 19:35 43.66622 7.22660 19 ft 2 kts 134°
2026-05-06 19:35 43.66546 7.22761 20 ft 12 kts 138°
2026-05-06 19:35 43.66499 7.22737 22 ft 6 kts 230°
2026-05-06 19:35 43.66495 7.22731 21 ft 1 kts 228°
2026-05-06 19:36 43.66144 7.22244 24 ft 165 kts 225°
2026-05-06 19:36 43.65141 7.20937 2498 ft 202 kts 225°
2026-05-06 19:36 43.63659 7.19460 4335 ft 290 kts 193°
2026-05-06 19:36 43.61489 7.20078 2972 ft 376 kts 156°
2026-05-06 19:37 43.59179 7.22074 3251 ft 404 kts 148°
2026-05-06 19:37 43.56700 7.24244 3411 ft 445 kts 151°
2026-05-06 19:37 43.54182 7.26305 3457 ft 385 kts 151°
2026-05-06 19:37 43.51986 7.28122 3444 ft 353 kts 152°
2026-05-06 19:38 43.49938 7.29833 3429 ft 351 kts 152°
2026-05-06 19:38 43.47710 7.31678 3500 ft 397 kts 152°
2026-05-06 19:38 43.45248 7.33701 3591 ft 419 kts 152°
2026-05-06 19:38 43.42780 7.35727 3685 ft 405 kts 152°
2026-05-06 19:39 43.40427 7.37683 3722 ft 380 kts 152°
2026-05-06 19:39 43.38250 7.39518 3732 ft 360 kts 151°
2026-05-06 19:39 43.36178 7.41285 3733 ft 344 kts 151°
2026-05-06 19:39 43.35162 7.43990 2990 ft 421 kts 78°
2026-05-06 19:40 43.36998 7.47550 1668 ft 486 kts
2026-05-06 19:40 43.40035 7.46343 2757 ft 433 kts 326°
2026-05-06 19:40 43.41799 7.43794 4110 ft 329 kts 293°
2026-05-06 19:40 43.42325 7.41029 4841 ft 283 kts 270°
2026-05-06 19:41 43.41866 7.38509 5500 ft 279 kts 230°
2026-05-06 19:41 43.40237 7.37097 5350 ft 270 kts 201°
2026-05-06 19:41 43.38513 7.36790 5099 ft 248 kts 135°
2026-05-06 19:41 43.38405 7.38740 5001 ft 213 kts 52°
2026-05-06 19:42 43.39677 7.39869 4521 ft 241 kts 10°
2026-05-06 19:42 43.41486 7.40190 4209 ft 286 kts 359°
2026-05-06 19:42 43.43638 7.40155 3897 ft 329 kts 351°
2026-05-06 19:42 43.46048 7.39640 3607 ft 368 kts 345°
2026-05-06 19:43 43.48617 7.38773 3312 ft 393 kts 341°
2026-05-06 19:43 43.51647 7.37383 3084 ft 502 kts 337°
2026-05-06 19:43 43.54576 7.35527 2824 ft 432 kts 327°
2026-05-06 19:43 43.56809 7.33173 2599 ft 385 kts 315°
2026-05-06 19:44 43.58631 7.30685 2389 ft 351 kts 312°
2026-05-06 19:44 43.60223 7.28314 1901 ft 333 kts 310°
2026-05-06 19:44 43.61783 7.25997 1294 ft 317 kts 316°
2026-05-06 19:44 43.63365 7.24292 1898 ft 268 kts 319°
2026-05-06 19:45 43.64754 7.22637 1891 ft 267 kts 316°
2026-05-06 19:45 43.66138 7.20810 1569 ft 290 kts 317°
2026-05-06 19:45 43.68029 7.19881 1895 ft 281 kts
2026-05-06 19:45 43.69706 7.20800 2348 ft 255 kts 33°
2026-05-06 19:46 43.70897 7.22525 2239 ft 250 kts 69°
2026-05-06 19:46 43.70884 7.24746 1684 ft 219 kts 120°
2026-05-06 19:46 43.69790 7.25957 683 ft 196 kts 174°
2026-05-06 19:46 43.68494 7.25612 171 ft 190 kts 223°
2026-05-06 19:47 43.67602 7.24286 212 ft 183 kts 225°
2026-05-06 19:47 43.66699 7.23052 79 ft 178 kts 225°
2026-05-06 19:47 43.65851 7.21874 24 ft 165 kts 226°
2026-05-06 19:47 43.65266 7.21072 20 ft 56 kts 225°
2026-05-06 19:48 43.65084 7.20810 20 ft 18 kts 221°
2026-05-06 19:48 43.65011 7.20709 21 ft 12 kts 245°
2026-05-06 19:48 43.65027 7.20614 22 ft 9 kts 300°
2026-05-06 19:48 43.65069 7.20564 20 ft 7 kts 324°
2026-05-06 19:49 43.65131 7.20491 20 ft 16 kts 312°
2026-05-06 19:49 43.65214 7.20371 19 ft 17 kts 316°
2026-05-06 19:49 43.65300 7.20293 21 ft 14 kts 355°
2026-05-06 19:49 43.65372 7.20341 19 ft 11 kts 46°
2026-05-06 19:50 43.65452 7.20462 19 ft 19 kts 48°
2026-05-06 19:50 43.65542 7.20582 19 ft 17 kts 44°
2026-05-06 19:50 43.65619 7.20689 19 ft 15 kts 43°
2026-05-06 19:50 43.65690 7.20784 19 ft 13 kts 45°
2026-05-06 19:51 43.65756 7.20875 19 ft 20 kts 44°
2026-05-06 19:51 43.65881 7.21045 19 ft 26 kts 46°
2026-05-06 19:51 43.65997 7.21218 19 ft 23 kts 46°
2026-05-06 19:51 43.66106 7.21367 19 ft 21 kts 43°
2026-05-06 19:52 43.66206 7.21498 19 ft 19 kts 43°
2026-05-06 19:52 43.66282 7.21606 19 ft 13 kts 61°
2026-05-06 19:52 43.66256 7.21697 19 ft 10 kts 134°
2026-05-06 19:52 43.66210 7.21759 19 ft 8 kts 136°
2026-05-06 19:53 43.66192 7.21777 19 ft 3 kts 169°
2026-05-06 19:53 43.66162 7.21740 19 ft 9 kts 228°
2026-05-06 19:53 43.66037 7.21568 18 ft 84 kts 224°
2026-05-06 19:53 43.65176 7.20413 1101 ft 157 kts 223°
2026-05-06 19:54 43.64507 7.19580 5014 ft 179 kts 224°
2026-05-06 19:54 43.63052 7.18175 5283 ft 352 kts 218°
2026-05-06 19:54 43.61090 7.16132 5681 ft 287 kts 217°
2026-05-06 19:54 43.59641 7.14748 5696 ft 261 kts 217°
2026-05-06 19:55 43.57961 7.13151 5884 ft 343 kts 215°
2026-05-06 19:55 43.55743 7.11142 5932 ft 425 kts 220°
2026-05-06 19:55 43.55008 7.07433 4311 ft 401 kts 261°
2026-05-06 19:55 43.54548 7.03800 3074 ft 376 kts 259°
2026-05-06 19:56 43.52901 7.03191 2556 ft 323 kts 124°
2026-05-06 19:56 43.53075 7.05673 2360 ft 246 kts 39°
2026-05-06 19:56 43.54502 7.07139 1968 ft 265 kts 32°
2026-05-06 19:56 43.55997 7.08687 1532 ft 269 kts 37°
2026-05-06 19:57 43.57471 7.10483 1516 ft 306 kts 41°
2026-05-06 19:57 43.59130 7.12705 1345 ft 356 kts 44°
2026-05-06 19:57 43.60970 7.15251 1603 ft 398 kts 43°
2026-05-06 19:57 43.62614 7.17525 1796 ft 306 kts 43°
2026-05-06 19:58 43.63894 7.19587 1825 ft 255 kts 82°
2026-05-06 19:58 43.64340 7.21633 1896 ft 204 kts 60°
2026-05-06 19:58 43.65113 7.23202 1419 ft 193 kts 51°
2026-05-06 19:58 43.65932 7.24624 791 ft 193 kts 51°
2026-05-06 19:59 43.66871 7.25938 844 ft 189 kts
2026-05-06 19:59 43.67720 7.24937 517 ft 211 kts 255°
2026-05-06 19:59 43.66931 7.23394 155 ft 183 kts 226°
2026-05-06 19:59 43.66115 7.22242 29 ft 151 kts 225°
2026-05-06 20:00 43.65652 7.21603 21 ft 25 kts 223°
2026-05-06 20:00 43.65660 7.21571 21 ft 14 kts 41°
2026-05-06 20:00 43.65792 7.21707 21 ft 16 kts 33°
2026-05-06 20:00 43.65822 7.21712 20 ft 0 kts 316°